LSMALSME

Guest
Details From LSMA - Alpnach
To LSME - Emmen
Flight Number -
Tags Routegen Generated
Created
Modified
Stats Distance 17 nm / 32 km
Max Altitude 100 ft / 30 m
Waypoints 5
Social Downloads 1
Likes 0
Share

Download

Looking for another format? Having issues loading an existing format? Contact us
Advertisement - Login to hide

Notes

Departing runway 0 LSMA. Arriving runway 3 LSME.

Route

LSMA +47.02_+008.30 +47.09_+008.34 +47.16_+008.38 LSME

ID Type Via Altitude (ft/m) Position (lat/lon) Dist (leg/tot) Name
O LSMA APT - 0 / 0 46.95000 / 8.28667 - / 0 nm
+47.02_+008.30 LATLON - 100 / 30 47.02133 / 8.30453 4 / 4 nm
+47.09_+008.34 LATLON - 100 / 30 47.09000 / 8.34225 4 / 8 nm
+47.16_+008.38 LATLON - 100 / 30 47.15868 / 8.37996 4 / 13 nm
O LSME APT - 0 / 0 47.10129 / 8.31517 4 / 17 nm

Altitude Profile

Advertisement - Login to hide

LSMA

Details ICAO LSMA
Name Alpnach
Region Switzerland
Timezone Europe/Zurich (UTC+1.0)
Stats Elevation 1,460 ft / 445 m (AMSL)
Location 46.943300° 8.285000°
Runways 1
Magnetic Variation 2.756° E

METAR

LSMA 271920Z AUTO 19003KT 9999NDV BKN082 OVC098 01/01 Q0996 RMK

Decode

TAF

TAF LSMA 271625Z 2717/2823 VRB02KT 9999 SCT020 BKN040 TEMPO 2812/2823 1500 SHSN BKN010

Decode

Departure Runways

ID Width Length Bearing (true/mag) Surface Threshold Overrun Markings Lighting
01 130 ft / 40 m 4,936 ft / 1,504 m 9.69° / 6.93° ASPHALT 0 ft / 0 m 328 ft / 100 m APP EDGE THRESHOLD SALS TDZ
19 130 ft / 40 m 4,936 ft / 1,504 m 189.69° / 186.93° ASPHALT 0 ft / 0 m 1,640 ft / 500 m APP EDGE THRESHOLD MALS

LSME

Details ICAO LSME (EML)
Name Emmen
Region Switzerland
Timezone Europe/Zurich (UTC+1.0)
Stats Elevation 1,400 ft / 427 m (AMSL)
Location 47.092300° 8.305070°
Runways 1
Magnetic Variation 2.762° E

METAR

LSME 271920Z AUTO 00000KT 9999NDV OVC100 01/01 Q0996 RMK

Decode

TAF

TAF LSME 271625Z 2717/2823 VRB02KT 9999 BKN040 TEMPO 2812/2823 27008KT 1500 SHSN BKN010

Decode

Destination Runways

ID Width Length Bearing (true/mag) Surface Threshold Overrun Markings Lighting
04 130 ft / 40 m 8,265 ft / 2,519 m 37.58° / 34.82° ASPHALT 427 ft / 130 m 797 ft / 243 m VISUAL EDGE THRESHOLD ALSF-I REIL-OMNI
22 130 ft / 40 m 8,265 ft / 2,519 m 217.59° / 214.83° ASPHALT 591 ft / 180 m 748 ft / 228 m VISUAL EDGE THRESHOLD ALSF-II TDZ REIL-OMNI

Approach Navaids

Runway Type Ident Frequency Range Bearing (true/mag) Slope Elevation
22 LOC-ILS IEM 110.35 MHz 18 nm / 33 km 217.59° / 214.83 ° - 1,400 ft / 427 m (AMSL)
22 GS IEM 110.35 MHz 10 nm / 19 km 217.59° / 214.83 ° 4.00° 1,400 ft / 427 m (AMSL)
22 DME IEM 110.35 MHz 18 nm / 33 km - - 1,406 ft / 429 m (AMSL)

Popular Alternatives